User: anonymous   Login
Location: Home AU
(51.1382°N, 13.5726°E)
Time: 08:25:01
(UTC+01:00)
Language:

ISS - Orbit

View from above orbital plane
View from above orbital plane
View from above satellite
View from above satellite

Ground track
Ground track

The orbit data is extracted from the following two-line orbital elements,

1 25544U 98067A   18024.87247258  .00016717  00000-0  10270-3 0  9038
2 25544  51.6423  13.1682 0003750  38.4209 321.7211 15.54208502 16225
Epoch (UTC): 24 January 2018 20:56:21
Eccentricity: 0.0003750
inclination: 51.6423°
perigee height: 402 km
apogee height: 407 km
right ascension of ascending node: 13.1682°
argument of perigee: 38.4209°
revolutions per day: 15.54208502
mean anomaly at epoch: 321.7211°
orbit number at epoch: 1622

The dashed part of the orbit path shows where the satellite is in the earth's shadow,  

DLR